Hourly Weather Godzieszki

Today, 12 May, Wednesday

Time Temperature Precipitation Wind Pressure Humidity
00:00 +16°C° 0 mm 5 mps 744 mmHg 88%
01:00 +17°C° 0 mm 4 mps 744 mmHg 88%
02:00 +15°C° 0 mm 4 mps 743 mmHg 88%
03:00 +15°C° 0 mm 4 mps 743 mmHg 88%
04:00 +15°C° 0 mm 4 mps 743 mmHg 88%
05:00 +17°C° 0 mm 4 mps 743 mmHg 85%
06:00 +18°C° 0 mm 4 mps 744 mmHg 81%
07:00 +20°C° 0 mm 4 mps 744 mmHg 77%
08:00 +21°C° 0 mm 3 mps 744 mmHg 73%
09:00 +23°C° 0 mm 2 mps 744 mmHg 70%
10:00 +25°C° 0 mm 2 mps 744 mmHg 66%
11:00 +25°C° 0.5 mm 2 mps 744 mmHg 65%
12:00 +25°C° 0.5 mm 3 mps 743 mmHg 64%
13:00 +26°C° 0.5 mm 3 mps 743 mmHg 63%
14:00 +25°C° 0.7 mm 4 mps 743 mmHg 63%
15:00 +25°C° 0.7 mm 4 mps 742 mmHg 63%
16:00 +25°C° 0.7 mm 5 mps 742 mmHg 64%
17:00 +23°C° 0.5 mm 5 mps 742 mmHg 68%
18:00 +21°C° 0.5 mm 5 mps 742 mmHg 73%
19:00 +19°C° 0.5 mm 5 mps 742 mmHg 77%
20:00 +17°C° 0 mm 5 mps 742 mmHg 81%
21:00 +16°C° 0 mm 5 mps 742 mmHg 85%
22:00 +15°C° 0 mm 5 mps 742 mmHg 89%
23:00 +14°C° 0 mm 4 mps 742 mmHg 89%

Tomorrow, 13 May, Thursday

Time Temperature Precipitation Wind Pressure Humidity
00:00 +13°C° 0 mm 4 mps 742 mmHg 88%
01:00 +13°C° 0 mm 4 mps 742 mmHg 88%
02:00 +12°C° 0 mm 4 mps 741 mmHg 88%
03:00 +11°C° 0 mm 4 mps 741 mmHg 87%
04:00 +10°C° 0 mm 3 mps 741 mmHg 86%
05:00 +11°C° 0 mm 4 mps 741 mmHg 83%
06:00 +12°C° 0 mm 4 mps 741 mmHg 79%
07:00 +12°C° 0 mm 4 mps 740 mmHg 76%
08:00 +14°C° 0 mm 4 mps 740 mmHg 71%
09:00 +15°C° 0 mm 4 mps 740 mmHg 66%
10:00 +17°C° 0 mm 4 mps 740 mmHg 62%
11:00 +18°C° 0 mm 4 mps 739 mmHg 59%
12:00 +19°C° 0 mm 4 mps 739 mmHg 56%
13:00 +20°C° 0 mm 3 mps 738 mmHg 52%
14:00 +20°C° 0 mm 3 mps 738 mmHg 52%
15:00 +20°C° 0 mm 3 mps 738 mmHg 52%
16:00 +20°C° 0 mm 3 mps 738 mmHg 52%
17:00 +19°C° 0 mm 3 mps 738 mmHg 61%
18:00 +17°C° 0 mm 3 mps 738 mmHg 69%
19:00 +14°C° 0 mm 3 mps 738 mmHg 77%
20:00 +14°C° 0 mm 3 mps 738 mmHg 81%
21:00 +13°C° 0 mm 3 mps 738 mmHg 84%
22:00 +12°C° 0 mm 3 mps 739 mmHg 88%
23:00 +12°C° 0 mm 3 mps 739 mmHg 90%

Day after tomorrow, 14 May, Friday

Time Temperature Precipitation Wind Pressure Humidity
00:00 +11°C° 0 mm 4 mps 739 mmHg 91%
01:00 +11°C° 0 mm 4 mps 739 mmHg 93%
02:00 +11°C° 0 mm 4 mps 739 mmHg 92%
03:00 +9°C° 0 mm 5 mps 740 mmHg 91%
04:00 +9°C° 0 mm 5 mps 740 mmHg 90%
05:00 +9°C° 0 mm 5 mps 740 mmHg 90%
06:00 +9°C° 0 mm 5 mps 740 mmHg 90%
07:00 +9°C° 0 mm 5 mps 741 mmHg 89%
08:00 +9°C° 0.2 mm 5 mps 741 mmHg 90%
09:00 +9°C° 0.2 mm 5 mps 742 mmHg 90%
10:00 +9°C° 0.2 mm 5 mps 742 mmHg 90%
11:00 +9°C° 0.1 mm 5 mps 742 mmHg 89%
12:00 +9°C° 0.1 mm 5 mps 743 mmHg 88%
13:00 +9°C° 0.1 mm 5 mps 743 mmHg 88%
14:00 +10°C° 0 mm 5 mps 743 mmHg 84%
15:00 +10°C° 0 mm 5 mps 743 mmHg 81%
16:00 +12°C° 0 mm 5 mps 744 mmHg 78%
17:00 +11°C° 0 mm 4 mps 744 mmHg 80%
18:00 +10°C° 0 mm 4 mps 744 mmHg 83%
19:00 +10°C° 0 mm 3 mps 744 mmHg 86%
20:00 +9°C° 0 mm 2 mps 744 mmHg 89%
21:00 +9°C° 0 mm 2 mps 744 mmHg 91%
22:00 +8°C° 0 mm 2 mps 745 mmHg 94%
23:00 +8°C° 0 mm 2 mps 745 mmHg 94%

15 May, Saturday

Time Temperature Precipitation Wind Pressure Humidity
00:00 +7°C° 0 mm 2 mps 745 mmHg 94%
01:00 +7°C° 0 mm 2 mps 745 mmHg 94%
02:00 +7°C° 0 mm 2 mps 745 mmHg 94%
03:00 +8°C° 0 mm 1 mps 745 mmHg 93%
04:00 +8°C° 0 mm 1 mps 745 mmHg 93%
05:00 +9°C° 0 mm 1 mps 746 mmHg 88%
06:00 +11°C° 0 mm 1 mps 746 mmHg 83%
07:00 +12°C° 0 mm 1 mps 746 mmHg 78%
08:00 +13°C° 0 mm 1 mps 746 mmHg 73%
09:00 +15°C° 0 mm 1 mps 746 mmHg 68%
10:00 +16°C° 0 mm 2 mps 746 mmHg 63%
11:00 +17°C° 0 mm 2 mps 746 mmHg 59%
12:00 +18°C° 0 mm 2 mps 745 mmHg 56%
13:00 +20°C° 0 mm 1 mps 745 mmHg 53%
14:00 +20°C° 0.1 mm 1 mps 745 mmHg 54%
15:00 +20°C° 0.1 mm 1 mps 745 mmHg 55%
16:00 +18°C° 0.1 mm 2 mps 745 mmHg 57%
17:00 +17°C° 0.1 mm 2 mps 745 mmHg 62%
18:00 +16°C° 0.1 mm 2 mps 745 mmHg 68%
19:00 +15°C° 0.1 mm 2 mps 745 mmHg 74%
20:00 +14°C° 0 mm 2 mps 745 mmHg 75%
21:00 +13°C° 0 mm 2 mps 745 mmHg 77%
22:00 +12°C° 0 mm 2 mps 745 mmHg 78%
23:00 +13°C° 0 mm 2 mps 745 mmHg 79%

16 May, Sunday

Time Temperature Precipitation Wind Pressure Humidity
00:00 +13°C° 0 mm 2 mps 745 mmHg 81%
01:00 +13°C° 0 mm 2 mps 745 mmHg 82%
02:00 +12°C° 0.1 mm 2 mps 745 mmHg 85%
03:00 +12°C° 0.1 mm 2 mps 745 mmHg 88%
04:00 +12°C° 0.1 mm 2 mps 745 mmHg 91%
05:00 +12°C° 0 mm 2 mps 745 mmHg 90%
06:00 +13°C° 0 mm 1 mps 745 mmHg 88%
07:00 +13°C° 0 mm 1 mps 745 mmHg 87%
08:00 +14°C° 0.1 mm 1 mps 745 mmHg 85%
09:00 +15°C° 0.1 mm 1 mps 745 mmHg 82%
10:00 +15°C° 0.1 mm 2 mps 745 mmHg 79%
11:00 +16°C° 0.1 mm 2 mps 745 mmHg 74%
12:00 +17°C° 0.1 mm 2 mps 745 mmHg 69%
13:00 +18°C° 0.1 mm 2 mps 745 mmHg 63%
14:00 +18°C° 0.1 mm 2 mps 744 mmHg 62%
15:00 +18°C° 0.1 mm 2 mps 744 mmHg 61%
16:00 +19°C° 0.1 mm 2 mps 744 mmHg 60%
17:00 +17°C° 0.2 mm 2 mps 744 mmHg 67%
18:00 +16°C° 0.2 mm 2 mps 744 mmHg 74%
19:00 +14°C° 0.2 mm 2 mps 744 mmHg 82%
20:00 +14°C° 0.3 mm 2 mps 744 mmHg 85%
21:00 +13°C° 0.3 mm 2 mps 744 mmHg 89%
22:00 +12°C° 0.3 mm 2 mps 744 mmHg 93%
23:00 +10°C° 0 mm 2 mps 745 mmHg 92%

17 May, Monday

Time Temperature Precipitation Wind Pressure Humidity
00:00 +10°C° 0 mm 2 mps 745 mmHg 92%
01:00 +9°C° 0 mm 3 mps 745 mmHg 92%
02:00 +9°C° 0 mm 3 mps 745 mmHg 93%
03:00 +8°C° 0 mm 3 mps 745 mmHg 94%
04:00 +7°C° 0 mm 3 mps 745 mmHg 94%
05:00 +9°C° 0 mm 3 mps 745 mmHg 90%
06:00 +10°C° 0 mm 4 mps 745 mmHg 86%
07:00 +11°C° 0 mm 4 mps 745 mmHg 82%
08:00 +13°C° 0 mm 5 mps 745 mmHg 75%
09:00 +14°C° 0 mm 5 mps 745 mmHg 68%
10:00 +15°C° 0 mm 5 mps 745 mmHg 62%
11:00 +16°C° 0.1 mm 5 mps 745 mmHg 61%
12:00 +16°C° 0.1 mm 5 mps 745 mmHg 60%
13:00 +16°C° 0.1 mm 5 mps 745 mmHg 59%
14:00 +17°C° 0.1 mm 4 mps 745 mmHg 60%
15:00 +17°C° 0.1 mm 4 mps 745 mmHg 60%
16:00 +17°C° 0.1 mm 3 mps 745 mmHg 61%
17:00 +16°C° 0.1 mm 3 mps 745 mmHg 66%
18:00 +15°C° 0.1 mm 2 mps 745 mmHg 71%
19:00 +14°C° 0.1 mm 2 mps 744 mmHg 76%
20:00 +13°C° 0 mm 2 mps 745 mmHg 79%
21:00 +12°C° 0 mm 2 mps 745 mmHg 82%
22:00 +12°C° 0 mm 2 mps 745 mmHg 85%
23:00 +10°C° 0 mm 2 mps 745 mmHg 88%
Show more